Location: Praha
(50.0830°N, 14.4670°E)
Time: 09:54:30
(UTC+01:00)

ISS - Pass Details

Date: 27 January 2023
Orbit: 412 x 423 km, 51.6° (Epoch: 06 February)

Event Time Altitude Azimuth Distance (km) Brightness Sun altitude
Rises 17:37:10 0° 271° (W) 2,378 1.6 -8.2°
Reaches altitude 10° 17:39:17 10° 275° (W) 1,514 0.3 -8.5°
Maximum altitude 17:42:40 65° 358° (N) 472 -3.6 -9.0°
Enters shadow 17:45:34 14° 80° (E) 1,319 -1.9 -9.5°
